Worthington, MN

1:48 AM CDT on August 22, 2017 (GMT -0500)
Worthington Municipal

Weather History for KOTG - February, 2014

Change the Weather History Date:

Friday, February 7, 2014

  Actual Average Record
Temperature  
Mean Temperature 4 °F -  
Max Temperature 14 °F 26 °F 54 °F (1987)
Min Temperature -7 °F 10 °F -17 °F (1979)
Degree Days  
Heating Degree Days 62    
Moisture  
Dew Point -6 °F    
Average Humidity 69    
Maximum Humidity 78    
Minimum Humidity 61    
Precipitation  
Precipitation 0.00 in - - ()
Sea Level Pressure  
Sea Level Pressure 30.13 in    
Wind  
Wind Speed 12 mph (SW)    
Max Wind Speed 17 mph    
Max Gust Speed 22 mph    
Visibility 10 miles    
Events      
Averages and records for this station are not official NWS values.
T = Trace of Precipitation, MM = Missing Value Source: NWS Daily Summary

Daily Weather History Graph

Daily Weather History Graph

Search for Another Location

Airport or City:

Trip Planner

Search our weather history database for the weather conditions in past years. The results will help you decide how hot, cold, wet, or windy it might be!

Date:

Astronomy

Feb. 07, 2014 Rise Set
Actual Time 7:31 AM CST 5:41 PM CST
Civil Twilight 7:01 AM CST 6:11 PM CST
Nautical Twilight 6:27 AM CST 6:45 PM CST
Astronomical Twilight 5:54 AM CST 7:19 PM CST
Moon 11:51 AM CST (2/7) 1:50 AM CST (2/7)
Length of Visible Light 11h 10m
Length of Day
10h 10m
First Quarter, 59% of the Moon is Illuminated
Feb 7
First Quarter
Feb 14
Full
Feb 22
Last Quarter
Mar 1
New
Mar 8
First Quarter

Hourly Weather History & Observations

Time (CST) Temp. Windchill Dew Point Humidity Pressure Visibility Wind Dir Wind Speed Gust Speed Precip Events Conditions
12:15 AM -4.0 °F -23.7 °F -11.2 °F 71% 30.22 in 10.0 mi West 13.8 mph - N/A   Clear
12:35 AM -4.0 °F -22.1 °F -11.2 °F 71% 30.22 in 10.0 mi WSW 11.5 mph - N/A   Clear
12:55 AM -4.0 °F -19.0 °F - N/A% 30.22 in 10.0 mi WSW 8.1 mph - N/A   Clear
1:15 AM -4.0 °F -22.1 °F -11.2 °F 71% 30.21 in 10.0 mi SW 11.5 mph - N/A   Clear
1:35 AM -4.0 °F -22.1 °F -13.0 °F 65% 30.20 in 10.0 mi SW 11.5 mph - N/A   Clear
1:55 AM -5.8 °F -24.4 °F -13.0 °F 71% 30.20 in 10.0 mi SW 11.5 mph - N/A   Clear
2:15 AM -5.8 °F -22.4 °F -14.8 °F 65% 30.19 in 10.0 mi SW 9.2 mph - N/A   Clear
2:35 AM -5.8 °F -24.4 °F -13.0 °F 71% 30.19 in 10.0 mi WSW 11.5 mph - N/A   Clear
2:55 AM -5.8 °F -23.4 °F -14.8 °F 65% 30.19 in 10.0 mi WSW 10.4 mph - N/A   Clear
3:15 AM -5.8 °F -23.4 °F - N/A% 30.18 in 10.0 mi WSW 10.4 mph - N/A   Clear
3:35 AM -5.8 °F -25.2 °F -13.0 °F 71% 30.17 in 10.0 mi WSW 12.7 mph - N/A   Clear
3:55 AM -5.8 °F -24.4 °F -13.0 °F 71% 30.17 in 10.0 mi WSW 11.5 mph - N/A   Clear
4:15 AM -5.8 °F -25.2 °F -14.8 °F 65% 30.16 in 10.0 mi WSW 12.7 mph - N/A   Clear
4:35 AM -5.8 °F -23.4 °F -14.8 °F 65% 30.16 in 10.0 mi WSW 10.4 mph - N/A   Clear
4:55 AM -5.8 °F -23.4 °F -13.0 °F 71% 30.15 in 10.0 mi WSW 10.4 mph - N/A   Clear
5:15 AM -5.8 °F -25.2 °F -14.8 °F 65% 30.16 in 10.0 mi WSW 12.7 mph - N/A   Clear
5:35 AM -5.8 °F -25.2 °F -13.0 °F 71% 30.15 in 10.0 mi WSW 12.7 mph - N/A   Clear
5:55 AM -5.8 °F -25.2 °F -14.8 °F 65% 30.15 in 10.0 mi WSW 12.7 mph - N/A   Clear
6:15 AM -5.8 °F -25.2 °F -11.2 °F 77% 30.15 in 10.0 mi WSW 12.7 mph - N/A   Clear
6:35 AM -5.8 °F -23.4 °F -11.2 °F 77% 30.16 in 10.0 mi WSW 10.4 mph - N/A   Clear
6:55 AM -5.8 °F -24.4 °F -14.8 °F 65% 30.17 in 10.0 mi SW 11.5 mph - N/A   Clear
7:15 AM -7.6 °F -25.7 °F -14.8 °F 71% 30.16 in 10.0 mi SW 10.4 mph - N/A   Clear
7:35 AM -7.6 °F -25.7 °F -14.8 °F 71% 30.16 in 10.0 mi WSW 10.4 mph - N/A   Clear
7:55 AM -7.6 °F -25.7 °F -13.0 °F 77% 30.17 in 10.0 mi SW 10.4 mph - N/A   Clear
8:15 AM -5.8 °F -22.4 °F -13.0 °F 71% 30.17 in 10.0 mi SW 9.2 mph - N/A   Clear
8:35 AM -5.8 °F -21.2 °F -13.0 °F 71% 30.17 in 10.0 mi SW 8.1 mph - N/A   Clear
8:55 AM -5.8 °F -22.4 °F -11.2 °F 77% 30.17 in 10.0 mi SW 9.2 mph - N/A   Clear
9:15 AM -2.2 °F -18.0 °F -9.4 °F 71% 30.17 in 10.0 mi SW 9.2 mph - N/A   Clear
9:35 AM -2.2 °F -20.7 °F -9.4 °F 71% 30.17 in 10.0 mi SW 12.7 mph - N/A   Clear
9:55 AM -0.4 °F -17.6 °F -9.4 °F 66% 30.18 in 10.0 mi SW 11.5 mph - N/A   Clear
10:15 AM -0.4 °F -15.7 °F -7.6 °F 72% 30.18 in 10.0 mi SW 9.2 mph - N/A   Clear
10:35 AM -0.4 °F -17.6 °F -9.4 °F 66% 30.18 in 10.0 mi WSW 11.5 mph - N/A   Clear
10:55 AM 1.4 °F -15.3 °F -7.6 °F 66% 30.17 in 10.0 mi SW 11.5 mph - N/A   Clear
11:15 AM 3.2 °F -11.3 °F -5.8 °F 66% 30.17 in 10.0 mi WSW 9.2 mph - N/A   Clear
11:35 AM 5.0 °F -10.8 °F -5.8 °F 61% 30.17 in 10.0 mi WSW 11.5 mph - N/A   Clear
11:55 AM 6.8 °F -7.8 °F -4.0 °F 61% 30.17 in 10.0 mi SW 10.4 mph - N/A   Clear
12:15 PM 6.8 °F -9.3 °F -2.2 °F 67% 30.16 in 10.0 mi SSW 12.7 mph - N/A   Clear
12:35 PM 6.8 °F -9.3 °F -0.4 °F 72% 30.15 in 10.0 mi SW 12.7 mph - N/A   Clear
12:55 PM 8.6 °F -7.7 °F -0.4 °F 67% 30.14 in 10.0 mi SW 13.8 mph - N/A   Clear
1:15 PM 10.4 °F -4.8 °F -0.4 °F 62% 30.14 in 10.0 mi SW 12.7 mph - N/A   Clear
1:35 PM 10.4 °F -7.2 °F 1.4 °F 67% 30.12 in 10.0 mi SW 17.3 mph - N/A   Clear
1:55 PM 12.2 °F -3.1 °F 1.4 °F 62% 30.11 in 10.0 mi SW 13.8 mph - N/A   Clear
2:15 PM 12.2 °F -4.3 °F 3.2 °F 67% 30.11 in 10.0 mi SW 16.1 mph - N/A   Clear
2:35 PM 12.2 °F -3.7 °F 1.4 °F 62% 30.10 in 10.0 mi SW 15.0 mph 19.6 mph N/A   Clear
2:55 PM 12.2 °F -4.8 °F 3.2 °F 67% 30.10 in 10.0 mi SSW 17.3 mph 21.9 mph N/A   Clear
3:15 PM 12.2 °F -4.8 °F 3.2 °F 67% 30.10 in 10.0 mi SSW 17.3 mph - N/A   Clear
3:35 PM 12.2 °F -3.7 °F 3.2 °F 67% 30.09 in 10.0 mi SSW 15.0 mph - N/A   Clear
3:55 PM 14.0 °F -1.4 °F 3.2 °F 62% 30.09 in 10.0 mi SSW 15.0 mph 18.4 mph N/A   Clear
4:15 PM 14.0 °F -0.2 °F 3.2 °F 62% 30.09 in 10.0 mi SSW 12.7 mph 17.3 mph N/A   Clear
4:35 PM 14.0 °F 0.5 °F 3.2 °F 62% 30.08 in 10.0 mi SSW 11.5 mph - N/A   Clear
4:55 PM 14.0 °F -0.2 °F 3.2 °F 62% 30.08 in 10.0 mi SSW 12.7 mph 16.1 mph N/A   Clear
5:15 PM 14.0 °F 2.0 °F 3.2 °F 62% 30.08 in 10.0 mi SSW 9.2 mph - N/A   Clear
5:35 PM 12.2 °F -0.2 °F 1.4 °F 62% 30.08 in 10.0 mi South 9.2 mph - N/A   Clear
5:55 PM 10.4 °F -2.4 °F 1.4 °F 67% 30.08 in 10.0 mi South 9.2 mph - N/A   Clear
6:15 PM 10.4 °F -2.4 °F 1.4 °F 67% 30.09 in 10.0 mi South 9.2 mph - N/A   Clear
6:35 PM 8.6 °F -5.5 °F -0.4 °F 67% 30.09 in 10.0 mi South 10.4 mph - N/A   Clear
6:55 PM 8.6 °F -5.5 °F -0.4 °F 67% 30.09 in 10.0 mi South 10.4 mph - N/A   Clear
7:15 PM 6.8 °F -6.9 °F -0.4 °F 72% 30.09 in 10.0 mi South 9.2 mph - N/A   Clear
7:35 PM 6.8 °F -6.9 °F -0.4 °F 72% 30.08 in 10.0 mi South 9.2 mph - N/A   Clear
7:55 PM 6.8 °F -6.9 °F -2.2 °F 67% 30.08 in 10.0 mi South 9.2 mph - N/A   Clear
8:15 PM 6.8 °F -7.8 °F -0.4 °F 72% 30.08 in 10.0 mi South 10.4 mph - N/A   Clear
8:35 PM 5.0 °F -9.1 °F -2.2 °F 72% 30.08 in 10.0 mi South 9.2 mph - N/A   Clear
8:55 PM 3.2 °F -11.3 °F -2.2 °F 78% 30.08 in 10.0 mi South 9.2 mph - N/A   Clear
9:15 PM 3.2 °F -11.3 °F -2.2 °F 78% 30.08 in 10.0 mi South 9.2 mph - N/A   Clear
9:35 PM 3.2 °F -13.1 °F -2.2 °F 78% 30.08 in 10.0 mi South 11.5 mph - N/A   Clear
9:55 PM 5.0 °F -11.6 °F -2.2 °F 72% 30.07 in 10.0 mi SSW 12.7 mph - N/A   Clear
10:15 PM 5.0 °F -10.8 °F -2.2 °F 72% 30.07 in 10.0 mi SSW 11.5 mph - N/A   Clear
10:35 PM 5.0 °F -11.6 °F -2.2 °F 72% 30.06 in 10.0 mi SSW 12.7 mph - N/A   Clear
10:55 PM 3.2 °F -13.1 °F -2.2 °F 78% 30.06 in 10.0 mi SSW 11.5 mph - N/A   Clear
11:15 PM 3.2 °F -13.1 °F -2.2 °F 78% 30.06 in 10.0 mi SSW 11.5 mph - N/A   Clear
11:35 PM 3.2 °F -12.2 °F -2.2 °F 78% 30.06 in 10.0 mi SSW 10.4 mph - N/A   Clear
11:55 PM 3.2 °F -12.2 °F -2.2 °F 78% 30.05 in 10.0 mi South 10.4 mph - N/A   Clear